| time (UTC) | temp F | wind direction | speed MPH | gust MPH | rain 1hr in | rain 24hr in | rain mn in | humidity % | barometer mb |
| 20260508211221 | 57 | 37 | 2.0 | 7.0 | 0.00 | 0.00 | 0.00 | 24 | 1009.2 |
| 20260508210659 | 58 | 313 | 2.0 | 7.0 | 0.00 | 0.00 | 0.00 | 23 | 1009.1 |
| 20260508210219 | 58 | 247 | 1.0 | 8.0 | 0.00 | 0.00 | 0.00 | 24 | 1009.2 |
| 20260508210135 | 58 | 287 | 1.0 | 8.0 | 0.00 | 0.00 | 0.00 | 24 | 1009.3 |
| 20260508205717 | 58 | 56 | 2.0 | 8.0 | 0.00 | 0.00 | 0.00 | 22 | 1009.2 |
| 20260508205215 | 58 | 268 | 4.0 | 10.0 | 0.00 | 0.00 | 0.00 | 21 | 1009.1 |
| 20260508204715 | 58 | 288 | 3.0 | 8.0 | 0.00 | 0.00 | 0.00 | 22 | 1009.1 |
| 20260508204629 | 58 | 323 | 2.0 | 8.0 | 0.00 | 0.00 | 0.00 | 22 | 1009.2 |
| 20260508204228 | 58 | 251 | 2.0 | 8.0 | 0.00 | 0.00 | 0.00 | 23 | 1009.1 |
| 20260508203725 | 58 | 352 | 2.0 | 8.0 | 0.00 | 0.00 | 0.00 | 21 | 1009.0 |
| 20260508203202 | 59 | 310 | 2.0 | 10.0 | 0.00 | 0.00 | 0.00 | 22 | 1009.0 |
| 20260508202703 | 59 | 163 | 3.0 | 10.0 | 0.00 | 0.00 | 0.00 | 20 | 1008.8 |
| 20260508202222 | 60 | 8 | 3.0 | 10.0 | 0.00 | 0.00 | 0.00 | 21 | 1008.8 |
| 20260508201702 | 60 | 291 | 4.0 | 10.0 | 0.00 | 0.00 | 0.00 | 20 | 1008.7 |
| 20260508201201 | 60 | 301 | 3.0 | 8.0 | 0.00 | 0.00 | 0.00 | 19 | 1008.7 |
| 20260508200702 | 59 | 263 | 2.0 | 8.0 | 0.00 | 0.00 | 0.00 | 22 | 1008.7 |
| 20260508200200 | 59 | 114 | 3.0 | 8.0 | 0.00 | 0.00 | 0.00 | 21 | 1008.8 |
| 20260508195714 | 58 | 195 | 2.0 | 11.0 | 0.00 | 0.00 | 0.00 | 21 | 1008.7 |
| 20260508195212 | 58 | 221 | 5.0 | 11.0 | 0.00 | 0.00 | 0.00 | 22 | 1008.7 |
| 20260508194711 | 59 | 72 | 6.0 | 11.0 | 0.00 | 0.00 | 0.00 | 20 | 1008.7 |
| 20260508194627 | 58 | 229 | 5.0 | 11.0 | 0.00 | 0.00 | 0.00 | 20 | 1008.8 |
| 20260508194207 | 59 | 186 | 4.0 | 11.0 | 0.00 | 0.00 | 0.00 | 20 | 1008.8 |
| 20260508193707 | 59 | 278 | 3.0 | 11.0 | 0.00 | 0.00 | 0.00 | 21 | 1008.8 |
| 20260508193204 | 59 | 276 | 3.0 | 7.0 | 0.00 | 0.00 | 0.00 | 23 | 1008.8 |
| 20260508192705 | 59 | 281 | 2.0 | 10.0 | 0.00 | 0.00 | 0.00 | 24 | 1008.9 |
| 20260508192201 | 57 | 330 | 2.0 | 10.0 | 0.00 | 0.00 | 0.00 | 22 | 1008.8 |
| 20260508191702 | 57 | 260 | 2.0 | 6.0 | 0.00 | 0.00 | 0.00 | 22 | 1008.8 |
| 20260508191159 | 57 | 280 | 3.0 | 8.0 | 0.00 | 0.00 | 0.00 | 22 | 1008.9 |
| 20260508190700 | 57 | 259 | 3.0 | 8.0 | 0.00 | 0.00 | 0.00 | 24 | 1008.9 |
| 20260508190218 | 57 | 270 | 2.0 | 10.0 | 0.00 | 0.00 | 0.00 | 23 | 1009.0 |
| 20260508190130 | 56 | 287 | 2.0 | 10.0 | 0.00 | 0.00 | 0.00 | 23 | 1009.0 |
| 20260508185659 | 57 | 256 | 3.0 | 10.0 | 0.00 | 0.00 | 0.00 | 22 | 1009.0 |
| 20260508185212 | 57 | 1 | 4.0 | 10.0 | 0.00 | 0.00 | 0.00 | 22 | 1008.9 |
| 20260508184711 | 57 | 44 | 3.0 | 14.0 | 0.00 | 0.00 | 0.00 | 21 | 1008.9 |
| 20260508184651 | 56 | 326 | 2.0 | 14.0 | 0.00 | 0.00 | 0.00 | 21 | 1009.2 |
| 20260508184208 | 57 | 294 | 2.0 | 14.0 | 0.00 | 0.00 | 0.00 | 23 | 1008.9 |
| 20260508183708 | 58 | 247 | 2.0 | 11.0 | 0.00 | 0.00 | 0.00 | 21 | 1009.0 |
| 20260508183207 | 58 | 302 | 3.0 | 14.0 | 0.00 | 0.00 | 0.00 | 22 | 1009.0 |
| 20260508182710 | 57 | 221 | 4.0 | 10.0 | 0.00 | 0.00 | 0.00 | 23 | 1009.0 |
| 20260508182208 | 56 | 261 | 3.0 | 10.0 | 0.00 | 0.00 | 0.00 | 21 | 1009.0 |
| 20260508181729 | 56 | 288 | 3.0 | 8.0 | 0.00 | 0.00 | 0.00 | 24 | 1009.1 |
| 20260508181205 | 56 | 309 | 3.0 | 10.0 | 0.00 | 0.00 | 0.00 | 21 | 1008.9 |
| 20260508180704 | 56 | 252 | 4.0 | 10.0 | 0.00 | 0.00 | 0.00 | 22 | 1009.0 |
| 20260508180238 | 56 | 259 | 3.0 | 10.0 | 0.00 | 0.00 | 0.00 | 23 | 1009.0 |
| 20260508180136 | 56 | 268 | 2.0 | 10.0 | 0.00 | 0.00 | 0.00 | 23 | 1009.0 |
| 20260508175735 | 56 | 51 | 4.0 | 8.0 | 0.00 | 0.00 | 0.00 | 21 | 1008.9 |
| 20260508175231 | 56 | 256 | 3.0 | 11.0 | 0.00 | 0.00 | 0.00 | 21 | 1008.9 |
| 20260508174711 | 56 | 17 | 4.0 | 12.0 | 0.00 | 0.00 | 0.00 | 20 | 1009.0 |
| 20260508174209 | 56 | 38 | 3.0 | 12.0 | 0.00 | 0.00 | 0.00 | 22 | 1009.0 |
| 20260508173710 | 57 | 257 | 5.0 | 12.0 | 0.00 | 0.00 | 0.00 | 23 | 1009.0 |
| 20260508173208 | 57 | 268 | 1.0 | 14.0 | 0.00 | 0.00 | 0.00 | 21 | 1009.0 |
| 20260508172729 | 57 | 63 | 6.0 | 14.0 | 0.00 | 0.00 | 0.00 | 20 | 1008.9 |
| 20260508172208 | 57 | 186 | 4.0 | 10.0 | 0.00 | 0.00 | 0.00 | 20 | 1008.9 |
| 20260508171705 | 57 | 237 | 2.0 | 12.0 | 0.00 | 0.00 | 0.00 | 20 | 1008.9 |
| 20260508171202 | 56 | 263 | 5.0 | 15.0 | 0.00 | 0.00 | 0.00 | 20 | 1009.0 |
| 20260508170705 | 56 | 18 | 6.0 | 15.0 | 0.00 | 0.00 | 0.00 | 20 | 1008.8 |
| 20260508170202 | 57 | 254 | 2.0 | 15.0 | 0.00 | 0.00 | 0.00 | 23 | 1008.9 |
| 20260508165700 | 57 | 292 | 5.0 | 15.0 | 0.00 | 0.00 | 0.00 | 22 | 1008.8 |
| 20260508165218 | 57 | 176 | 3.0 | 11.0 | 0.00 | 0.00 | 0.00 | 24 | 1008.9 |
| 20260508164204 | 55 | 235 | 4.0 | 9.0 | 0.00 | 0.00 | 0.00 | 24 | 1009.0 |
| 20260508163705 | 55 | 247 | 1.0 | 6.0 | 0.00 | 0.00 | 0.00 | 26 | 1009.0 |
| 20260508163202 | 55 | 266 | 1.0 | 9.0 | 0.00 | 0.00 | 0.00 | 24 | 1008.9 |
| 20260508162703 | 55 | 320 | 4.0 | 11.0 | 0.00 | 0.00 | 0.00 | 24 | 1008.9 |
| 20260508162200 | 55 | 321 | 5.0 | 11.0 | 0.00 | 0.00 | 0.00 | 25 | 1009.0 |
| 20260508161700 | 56 | 233 | 1.0 | 7.0 | 0.00 | 0.00 | 0.00 | 26 | 1008.9 |
| 20260508161213 | 56 | 215 | 3.0 | 7.0 | 0.00 | 0.00 | 0.00 | 25 | 1009.0 |
| 20260508160713 | 56 | 255 | 4.0 | 7.0 | 0.00 | 0.00 | 0.00 | 25 | 1008.9 |
| 20260508160210 | 56 | 267 | 2.0 | 6.0 | 0.00 | 0.00 | 0.00 | 24 | 1009.0 |
| 20260508160127 | 55 | 262 | 2.0 | 6.0 | 0.00 | 0.00 | 0.00 | 24 | 1009.1 |
| 20260508155708 | 57 | 265 | 3.0 | 6.0 | 0.00 | 0.00 | 0.00 | 28 | 1009.0 |
| 20260508155204 | 57 | 262 | 1.0 | 8.0 | 0.00 | 0.00 | 0.00 | 27 | 1009.0 |
| 20260508154706 | 57 | 192 | 1.0 | 8.0 | 0.00 | 0.00 | 0.00 | 25 | 1009.1 |
| 20260508154202 | 56 | 118 | 3.0 | 7.0 | 0.00 | 0.00 | 0.00 | 24 | 1009.1 |
| 20260508153703 | 57 | 283 | 3.0 | 7.0 | 0.00 | 0.00 | 0.00 | 24 | 1009.1 |
| 20260508153240 | 56 | 41 | 3.0 | 7.0 | 0.00 | 0.00 | 0.00 | 25 | 1009.2 |
| 20260508153133 | 56 | 254 | 2.0 | 7.0 | 0.00 | 0.00 | 0.00 | 27 | 1009.4 |
| 20260508152718 | 56 | 65 | 2.0 | 7.0 | 0.00 | 0.00 | 0.00 | 26 | 1009.3 |
| 20260508152211 | 56 | 109 | 2.0 | 7.0 | 0.00 | 0.00 | 0.00 | 26 | 1009.3 |
| 20260508151712 | 56 | 275 | 2.0 | 7.0 | 0.00 | 0.00 | 0.00 | 27 | 1009.4 |
| 20260508151628 | 55 | 314 | 1.0 | 7.0 | 0.00 | 0.00 | 0.00 | 26 | 1009.5 |
| 20260508151228 | 55 | 230 | 3.0 | 8.0 | 0.00 | 0.00 | 0.00 | 26 | 1009.4 |
| 20260508150725 | 55 | 326 | 3.0 | 9.0 | 0.00 | 0.00 | 0.00 | 25 | 1009.3 |
| 20260508150203 | 55 | 340 | 4.0 | 9.0 | 0.00 | 0.00 | 0.00 | 26 | 1009.4 |
| 20260508145722 | 55 | 293 | 2.0 | 8.0 | 0.00 | 0.00 | 0.00 | 27 | 1009.4 |
| 20260508145201 | 54 | 39 | 1.0 | 8.0 | 0.00 | 0.00 | 0.00 | 29 | 1009.5 |
| 20260508144703 | 53 | 278 | 3.0 | 8.0 | 0.00 | 0.00 | 0.00 | 30 | 1009.6 |
| 20260508144220 | 53 | 305 | 3.0 | 6.0 | 0.00 | 0.00 | 0.00 | 30 | 1009.7 |
| 20260508143713 | 52 | 243 | 2.0 | 5.0 | 0.00 | 0.00 | 0.00 | 31 | 1009.8 |
| 20260508143210 | 52 | 188 | 1.0 | 9.0 | 0.00 | 0.00 | 0.00 | 33 | 1009.9 |
| 20260508143129 | 51 | 235 | 1.0 | 9.0 | 0.00 | 0.00 | 0.00 | 33 | 1010.0 |
| 20260508142708 | 51 | 288 | 3.0 | 9.0 | 0.00 | 0.00 | 0.00 | 32 | 1010.0 |
| 20260508142225 | 51 | 259 | 2.0 | 5.0 | 0.00 | 0.00 | 0.00 | 33 | 1010.0 |
| 20260508141705 | 50 | 321 | 1.0 | 7.0 | 0.00 | 0.00 | 0.00 | 34 | 1010.1 |
| 20260508141223 | 50 | 245 | 2.0 | 7.0 | 0.00 | 0.00 | 0.00 | 34 | 1010.2 |
| 20260508140702 | 50 | 265 | 2.0 | 7.0 | 0.00 | 0.00 | 0.00 | 34 | 1010.3 |
| 20260508140200 | 50 | 68 | 3.0 | 7.0 | 0.00 | 0.00 | 0.00 | 33 | 1010.2 |
| 20260508135659 | 50 | 276 | 2.0 | 8.0 | 0.00 | 0.00 | 0.00 | 34 | 1010.2 |
| 20260508135212 | 50 | 137 | 2.0 | 8.0 | 0.00 | 0.00 | 0.00 | 32 | 1010.3 |
| 20260508134711 | 51 | 293 | 2.0 | 13.0 | 0.00 | 0.00 | 0.00 | 32 | 1010.2 |
| 20260508134138 | 51 | 269 | 2.0 | 11.0 | 0.00 | 0.00 | 0.00 | 32 | 1010.1 |
| 20260508133200 | 51 | 211 | 3.0 | 11.0 | 0.00 | 0.00 | 0.00 | 32 | 1010.1 |
| 20260508132701 | 50 | 252 | 4.0 | 11.0 | 0.00 | 0.00 | 0.00 | 33 | 1010.1 |
| 20260508132220 | 50 | 274 | 2.0 | 11.0 | 0.00 | 0.00 | 0.00 | 33 | 1010.2 |
| 20260508131714 | 50 | 56 | 1.0 | 5.0 | 0.00 | 0.00 | 0.00 | 35 | 1010.1 |
| 20260508131632 | 49 | 306 | 0.0 | 5.0 | 0.00 | 0.00 | 0.00 | 35 | 1010.3 |
| 20260508131211 | 50 | 268 | 2.0 | 5.0 | 0.00 | 0.00 | 0.00 | 34 | 1010.2 |
| 20260508130711 | 50 | 94 | 2.0 | 5.0 | 0.00 | 0.00 | 0.00 | 33 | 1010.1 |
| 20260508130228 | 50 | 271 | 2.0 | 5.0 | 0.00 | 0.00 | 0.00 | 36 | 1010.2 |
| 20260508130119 | 49 | 322 | 0.0 | 5.0 | 0.00 | 0.00 | 0.00 | 36 | 1010.3 |
| 20260508125726 | 50 | 250 | 0.0 | 6.0 | 0.00 | 0.00 | 0.00 | 35 | 1010.1 |
| 20260508125203 | 50 | 232 | 3.0 | 9.0 | 0.00 | 0.00 | 0.00 | 34 | 1010.2 |
| 20260508124722 | 50 | 248 | 1.0 | 9.0 | 0.00 | 0.00 | 0.00 | 34 | 1010.2 |
| 20260508124219 | 50 | 297 | 5.0 | 9.0 | 0.00 | 0.00 | 0.00 | 32 | 1010.1 |
| 20260508123659 | 50 | 285 | 2.0 | 9.0 | 0.00 | 0.00 | 0.00 | 35 | 1010.0 |
| 20260508123234 | 49 | 3 | 1.0 | 9.0 | 0.00 | 0.00 | 0.00 | 36 | 1010.1 |
| 20260508123131 | 49 | 271 | 1.0 | 9.0 | 0.00 | 0.00 | 0.00 | 35 | 1010.2 |
| 20260508122711 | 49 | 341 | 1.0 | 9.0 | 0.00 | 0.00 | 0.00 | 36 | 1010.1 |
| 20260508122208 | 49 | 297 | 2.0 | 9.0 | 0.00 | 0.00 | 0.00 | 35 | 1010.1 |
| 20260508121706 | 48 | 269 | 3.0 | 6.0 | 0.00 | 0.00 | 0.00 | 37 | 1010.0 |
| 20260508121204 | 48 | 256 | 1.0 | 5.0 | 0.00 | 0.00 | 0.00 | 37 | 1009.9 |
| 20260508120703 | 48 | 258 | 1.0 | 4.0 | 0.00 | 0.00 | 0.00 | 38 | 1010.0 |
| 20260508120202 | 47 | 276 | 1.0 | 8.0 | 0.00 | 0.00 | 0.00 | 38 | 1010.1 |
| 20260508115702 | 47 | 253 | 2.0 | 8.0 | 0.00 | 0.00 | 0.00 | 37 | 1010.0 |
| 20260508115317 | 48 | 198 | 2.0 | 6.0 | 0.00 | 0.00 | 0.00 | 38 | 1010.0 |
| 20260508114711 | 48 | 293 | 3.0 | 7.0 | 0.00 | 0.00 | 0.00 | 37 | 1010.0 |
| 20260508114220 | 47 | 250 | 2.0 | 8.0 | 0.00 | 0.00 | 0.00 | 38 | 1009.8 |
| 20260508113700 | 47 | 314 | 2.0 | 8.0 | 0.00 | 0.00 | 0.00 | 39 | 1009.8 |
| 20260508113158 | 46 | 311 | 2.0 | 7.0 | 0.00 | 0.00 | 0.00 | 40 | 1009.8 |
| 20260508112700 | 46 | 319 | 2.0 | 4.0 | 0.00 | 0.00 | 0.00 | 42 | 1009.7 |
| 20260508112216 | 45 | 316 | 0.0 | 6.0 | 0.00 | 0.00 | 0.00 | 43 | 1009.7 |
| 20260508111225 | 44 | 137 | 1.0 | 7.0 | 0.00 | 0.00 | 0.00 | 45 | 1009.6 |
| 20260508110721 | 43 | 326 | 1.0 | 5.0 | 0.00 | 0.00 | 0.00 | 47 | 1009.6 |
| 20260508110217 | 41 | 252 | 1.0 | 5.0 | 0.00 | 0.00 | 0.00 | 49 | 1009.5 |
| 20260508110134 | 41 | 122 | 0.0 | 3.0 | 0.00 | 0.00 | 0.00 | 50 | 1009.8 |
| 20260508105716 | 40 | 248 | 1.0 | 2.0 | 0.00 | 0.00 | 0.00 | 51 | 1009.6 |
| 20260508105213 | 40 | 232 | 0.0 | 1.0 | 0.00 | 0.00 | 0.00 | 52 | 1009.5 |
| 20260508104732 | 40 | 232 | 0.0 | 1.0 | 0.00 | 0.00 | 0.00 | 52 | 1009.5 |
| 20260508104208 | 39 | 232 | 0.0 | 1.0 | 0.00 | 0.00 | 0.00 | 53 | 1009.5 |
| 20260508103728 | 39 | 239 | 0.0 | 1.0 | 0.00 | 0.00 | 0.00 | 53 | 1009.4 |
| 20260508103206 | 39 | 241 | 0.0 | 2.0 | 0.00 | 0.00 | 0.00 | 55 | 1009.4 |
| 20260508102707 | 38 | 250 | 0.0 | 2.0 | 0.00 | 0.00 | 0.00 | 53 | 1009.4 |
| 20260508102205 | 38 | 257 | 0.0 | 2.0 | 0.00 | 0.00 | 0.00 | 56 | 1009.4 |
| 20260508101703 | 37 | 252 | 0.0 | 2.0 | 0.00 | 0.00 | 0.00 | 57 | 1009.4 |
| 20260508101202 | 37 | 251 | 0.0 | 1.0 | 0.00 | 0.00 | 0.00 | 57 | 1009.2 |
| 20260508100702 | 37 | 239 | 0.0 | 0.0 | 0.00 | 0.00 | 0.00 | 57 | 1009.1 |
| 20260508100200 | 37 | 239 | 0.0 | 0.0 | 0.00 | 0.00 | 0.00 | 58 | 1009.1 |
| 20260508095700 | 37 | 239 | 0.0 | 0.0 | 0.00 | 0.00 | 0.00 | 57 | 1009.0 |
| 20260508095236 | 37 | 239 | 0.0 | 0.0 | 0.00 | 0.00 | 0.00 | 57 | 1009.0 |
| 20260508094715 | 37 | 239 | 0.0 | 0.0 | 0.00 | 0.00 | 0.00 | 56 | 1008.9 |
| 20260508094630 | 37 | 239 | 0.0 | 0.0 | 0.00 | 0.00 | 0.00 | 56 | 1009.1 |
| 20260508094211 | 37 | 239 | 0.0 | 0.0 | 0.00 | 0.00 | 0.00 | 57 | 1009.0 |
| 20260508093709 | 37 | 239 | 0.0 | 0.0 | 0.00 | 0.00 | 0.00 | 57 | 1009.1 |
| 20260508093207 | 37 | 239 | 0.0 | 0.0 | 0.00 | 0.00 | 0.00 | 55 | 1008.9 |
| 20260508092707 | 38 | 239 | 0.0 | 0.0 | 0.00 | 0.00 | 0.00 | 53 | 1008.8 |
| 20260508092202 | 38 | 239 | 0.0 | 0.0 | 0.00 | 0.00 | 0.00 | 54 | 1008.8 |
| 20260508091723 | 38 | 238 | 0.0 | 0.0 | 0.00 | 0.00 | 0.00 | 53 | 1008.8 |
| 20260508091201 | 39 | 237 | 0.0 | 0.0 | 0.00 | 0.00 | 0.00 | 53 | 1008.9 |
| 20260508090702 | 39 | 237 | 0.0 | 0.0 | 0.00 | 0.00 | 0.00 | 52 | 1008.8 |
| 20260508090221 | 39 | 237 | 0.0 | 0.0 | 0.00 | 0.00 | 0.00 | 53 | 1008.8 |
| 20260508085659 | 40 | 237 | 0.0 | 0.0 | 0.00 | 0.00 | 0.00 | 51 | 1008.7 |
| 20260508085158 | 40 | 237 | 0.0 | 0.0 | 0.00 | 0.00 | 0.00 | 49 | 1008.7 |
| 20260508084701 | 40 | 237 | 0.0 | 0.0 | 0.00 | 0.00 | 0.00 | 48 | 1008.7 |
| 20260508084158 | 41 | 237 | 0.0 | 1.0 | 0.00 | 0.00 | 0.00 | 47 | 1008.7 |
| 20260508083658 | 41 | 237 | 0.0 | 2.0 | 0.00 | 0.00 | 0.00 | 46 | 1008.6 |
| 20260508083212 | 41 | 58 | 0.0 | 2.0 | 0.00 | 0.00 | 0.00 | 45 | 1008.6 |
| 20260508083128 | 40 | 302 | 0.0 | 2.0 | 0.00 | 0.00 | 0.00 | 46 | 1008.8 |
| 20260508082710 | 41 | 269 | 0.0 | 2.0 | 0.00 | 0.00 | 0.00 | 48 | 1008.6 |
| 20260508082207 | 41 | 187 | 0.0 | 3.0 | 0.00 | 0.00 | 0.00 | 45 | 1008.6 |
| 20260508081727 | 41 | 263 | 1.0 | 4.0 | 0.00 | 0.00 | 0.00 | 46 | 1008.6 |
| 20260508081201 | 42 | 257 | 0.0 | 4.0 | 0.00 | 0.00 | 0.00 | 46 | 1008.6 |
| 20260508080703 | 42 | 231 | 1.0 | 4.0 | 0.00 | 0.00 | 0.00 | 46 | 1008.7 |
| 20260508080201 | 42 | 272 | 2.0 | 4.0 | 0.00 | 0.00 | 0.00 | 45 | 1008.5 |
| 20260508075721 | 41 | 269 | 1.0 | 4.0 | 0.00 | 0.00 | 0.00 | 45 | 1008.4 |
| 20260508075218 | 41 | 274 | 1.0 | 3.0 | 0.00 | 0.00 | 0.00 | 47 | 1008.3 |
| 20260508074731 | 41 | 259 | 1.0 | 3.0 | 0.00 | 0.00 | 0.00 | 46 | 1008.1 |
| 20260508074626 | 40 | 197 | 0.0 | 3.0 | 0.00 | 0.00 | 0.00 | 47 | 1008.1 |
| 20260508074206 | 41 | 245 | 0.0 | 3.0 | 0.00 | 0.00 | 0.00 | 47 | 1008.0 |
| 20260508073706 | 41 | 243 | 0.0 | 2.0 | 0.00 | 0.00 | 0.00 | 48 | 1008.1 |
| 20260508073202 | 41 | 235 | 0.0 | 2.0 | 0.00 | 0.00 | 0.00 | 47 | 1008.1 |
| 20260508072703 | 41 | 243 | 1.0 | 4.0 | 0.00 | 0.00 | 0.00 | 47 | 1008.0 |
| 20260508072200 | 40 | 271 | 1.0 | 4.0 | 0.00 | 0.00 | 0.00 | 48 | 1008.0 |
| 20260508071701 | 40 | 273 | 0.0 | 1.0 | 0.00 | 0.00 | 0.00 | 49 | 1008.0 |
| 20260508071200 | 40 | 236 | 0.0 | 1.0 | 0.00 | 0.00 | 0.00 | 50 | 1008.1 |
| 20260508070659 | 40 | 239 | 0.0 | 1.0 | 0.00 | 0.00 | 0.00 | 49 | 1008.0 |
| 20260508070216 | 40 | 239 | 0.0 | 1.0 | 0.00 | 0.00 | 0.00 | 48 | 1008.0 |
| 20260508070130 | 40 | 239 | 0.0 | 1.0 | 0.00 | 0.00 | 0.00 | 48 | 1008.1 |
| 20260508065712 | 41 | 239 | 0.0 | 1.0 | 0.00 | 0.00 | 0.00 | 48 | 1008.0 |
| 20260508065208 | 41 | 255 | 0.0 | 1.0 | 0.00 | 0.00 | 0.00 | 47 | 1007.9 |
| 20260508064703 | 41 | 255 | 0.0 | 1.0 | 0.00 | 0.00 | 0.00 | 47 | 1008.0 |
| 20260508064202 | 41 | 250 | 0.0 | 1.0 | 0.00 | 0.00 | 0.00 | 47 | 1007.9 |
| 20260508063703 | 41 | 250 | 0.0 | 2.0 | 0.00 | 0.00 | 0.00 | 47 | 1007.9 |
| 20260508063202 | 42 | 250 | 1.0 | 2.0 | 0.00 | 0.00 | 0.00 | 48 | 1008.0 |
| 20260508062724 | 42 | 244 | 0.0 | 1.0 | 0.00 | 0.00 | 0.00 | 46 | 1008.0 |
| 20260508062202 | 42 | 246 | 0.0 | 1.0 | 0.00 | 0.00 | 0.00 | 46 | 1008.1 |
| 20260508061722 | 42 | 186 | 0.0 | 1.0 | 0.00 | 0.00 | 0.00 | 46 | 1008.1 |
| 20260508061159 | 42 | 235 | 0.0 | 0.0 | 0.00 | 0.00 | 0.00 | 46 | 1008.1 |
| 20260508060659 | 42 | 226 | 0.0 | 0.0 | 0.00 | 0.00 | 0.00 | 45 | 1008.2 |
| 20260508060212 | 42 | 226 | 0.0 | 0.0 | 0.00 | 0.00 | 0.00 | 45 | 1008.3 |
| 20260508060132 | 42 | 226 | 0.0 | 0.0 | 0.00 | 0.00 | 0.00 | 44 | 1008.4 |
| 20260508055714 | 43 | 226 | 0.0 | 0.0 | 0.00 | 0.00 | 0.00 | 44 | 1008.3 |
| 20260508055211 | 43 | 227 | 0.0 | 1.0 | 0.00 | 0.00 | 0.00 | 43 | 1008.3 |
| 20260508054711 | 43 | 226 | 0.0 | 1.0 | 0.00 | 0.00 | 0.00 | 43 | 1008.4 |
| 20260508054627 | 43 | 226 | 0.0 | 1.0 | 0.00 | 0.00 | 0.00 | 44 | 1008.6 |
| 20260508054229 | 44 | 144 | 0.0 | 2.0 | 0.00 | 0.00 | 0.00 | 43 | 1008.3 |
| 20260508053708 | 44 | 207 | 0.0 | 2.0 | 0.00 | 0.00 | 0.00 | 43 | 1008.4 |
| 20260508053205 | 44 | 236 | 1.0 | 2.0 | 0.00 | 0.00 | 0.00 | 42 | 1008.5 |
| 20260508052705 | 44 | 252 | 1.0 | 2.0 | 0.00 | 0.00 | 0.00 | 42 | 1008.5 |
| 20260508052204 | 44 | 224 | 1.0 | 4.0 | 0.00 | 0.00 | 0.00 | 42 | 1008.4 |
| 20260508051705 | 43 | 230 | 1.0 | 4.0 | 0.00 | 0.00 | 0.00 | 43 | 1008.5 |
| 20260508051204 | 43 | 247 | 0.0 | 1.0 | 0.00 | 0.00 | 0.00 | 46 | 1008.6 |
| 20260508050705 | 43 | 297 | 0.0 | 1.0 | 0.00 | 0.00 | 0.00 | 45 | 1008.6 |
| 20260508050202 | 43 | 302 | 0.0 | 0.0 | 0.00 | 0.00 | 0.00 | 48 | 1008.7 |
| 20260508045720 | 44 | 301 | 0.0 | 0.0 | 0.00 | 0.00 | 0.00 | 47 | 1008.7 |
| 20260508045157 | 44 | 302 | 0.0 | 1.0 | 0.00 | 0.00 | 0.00 | 47 | 1008.7 |
| 20260508044715 | 45 | 301 | 0.0 | 1.0 | 0.00 | 0.00 | 0.00 | 42 | 1008.8 |
| 20260508044630 | 44 | 302 | 0.0 | 1.0 | 0.00 | 0.00 | 0.00 | 42 | 1008.7 |
| 20260508044230 | 45 | 309 | 0.0 | 2.0 | 0.00 | 0.00 | 0.00 | 43 | 1008.7 |
| 20260508043709 | 45 | 309 | 0.0 | 2.0 | 0.00 | 0.00 | 0.00 | 41 | 1008.7 |
| 20260508043205 | 45 | 235 | 1.0 | 2.0 | 0.00 | 0.00 | 0.00 | 40 | 1008.8 |
| 20260508042725 | 45 | 284 | 1.0 | 2.0 | 0.00 | 0.00 | 0.00 | 40 | 1008.9 |
| 20260508042202 | 46 | 246 | 0.0 | 3.0 | 0.00 | 0.00 | 0.00 | 41 | 1009.0 |
| 20260508041702 | 46 | 25 | 1.0 | 3.0 | 0.00 | 0.00 | 0.00 | 42 | 1008.9 |
| 20260508041156 | 46 | 316 | 1.0 | 2.0 | 0.00 | 0.00 | 0.00 | 40 | 1009.0 |
| 20260508040738 | 46 | 290 | 0.0 | 2.0 | 0.00 | 0.00 | 0.00 | 42 | 1008.9 |
| 20260508040234 | 46 | 250 | 0.0 | 3.0 | 0.00 | 0.00 | 0.00 | 42 | 1008.9 |
| 20260508040124 | 45 | 246 | 0.0 | 3.0 | 0.00 | 0.00 | 0.00 | 42 | 1008.9 |
| 20260508035710 | 46 | 263 | 0.0 | 3.0 | 0.00 | 0.00 | 0.00 | 42 | 1008.8 |
| 20260508035205 | 46 | 231 | 0.0 | 2.0 | 0.00 | 0.00 | 0.00 | 41 | 1008.8 |
| 20260508034706 | 46 | 255 | 0.0 | 2.0 | 0.00 | 0.00 | 0.00 | 42 | 1008.7 |
| 20260508034205 | 47 | 206 | 1.0 | 3.0 | 0.00 | 0.00 | 0.00 | 40 | 1008.7 |
| 20260508033725 | 47 | 281 | 0.0 | 3.0 | 0.00 | 0.00 | 0.00 | 40 | 1008.8 |
| 20260508033202 | 47 | 311 | 1.0 | 2.0 | 0.00 | 0.00 | 0.00 | 40 | 1008.8 |
| 20260508032659 | 47 | 257 | 1.0 | 2.0 | 0.00 | 0.00 | 0.00 | 38 | 1008.9 |
| 20260508032154 | 48 | 245 | 0.0 | 2.0 | 0.00 | 0.00 | 0.00 | 38 | 1008.9 |
| 20260508031659 | 48 | 252 | 0.0 | 2.0 | 0.00 | 0.00 | 0.00 | 38 | 1008.8 |
| 20260508031216 | 48 | 264 | 0.0 | 3.0 | 0.00 | 0.00 | 0.00 | 38 | 1008.7 |
| 20260508030715 | 48 | 223 | 1.0 | 3.0 | 0.00 | 0.00 | 0.00 | 37 | 1008.7 |
| 20260508030204 | 48 | 322 | 1.0 | 2.0 | 0.00 | 0.00 | 0.00 | 37 | 1008.6 |
| 20260508025703 | 49 | 250 | 1.0 | 2.0 | 0.00 | 0.02 | 0.00 | 37 | 1008.6 |
| 20260508025202 | 49 | 297 | 0.0 | 4.0 | 0.00 | 0.02 | 0.00 | 37 | 1008.6 |
| 20260508024704 | 49 | 333 | 1.0 | 4.0 | 0.00 | 0.02 | 0.00 | 37 | 1008.6 |
| 20260508024202 | 48 | 287 | 0.0 | 3.0 | 0.00 | 0.02 | 0.00 | 38 | 1008.6 |
| 20260508023703 | 48 | 356 | 1.0 | 3.0 | 0.00 | 0.02 | 0.00 | 40 | 1008.6 |
| 20260508023152 | 48 | 277 | 1.0 | 3.0 | 0.00 | 0.02 | 0.00 | 40 | 1008.6 |
| 20260508022653 | 48 | 271 | 1.0 | 2.0 | 0.00 | 0.02 | 0.00 | 41 | 1008.5 |
| 20260508022213 | 48 | 266 | 0.0 | 1.0 | 0.00 | 0.02 | 0.00 | 43 | 1008.5 |
| 20260508021712 | 48 | 266 | 0.0 | 2.0 | 0.00 | 0.02 | 0.00 | 41 | 1008.5 |
| 20260508021628 | 48 | 266 | 0.0 | 2.0 | 0.00 | 0.02 | 0.00 | 41 | 1008.6 |
| 20260508021211 | 48 | 266 | 0.0 | 2.0 | 0.00 | 0.02 | 0.00 | 41 | 1008.6 |
| 20260508020710 | 48 | 246 | 0.0 | 1.0 | 0.00 | 0.02 | 0.00 | 42 | 1008.6 |
| 20260508020202 | 48 | 246 | 0.0 | 1.0 | 0.00 | 0.02 | 0.00 | 41 | 1008.5 |
| 20260508015702 | 49 | 247 | 0.0 | 2.0 | 0.00 | 0.02 | 0.00 | 42 | 1008.4 |
| 20260508015219 | 49 | 128 | 0.0 | 2.0 | 0.00 | 0.02 | 0.00 | 37 | 1008.4 |
| 20260508014659 | 49 | 276 | 0.0 | 3.0 | 0.00 | 0.02 | 0.00 | 36 | 1008.3 |
| 20260508014153 | 50 | 276 | 0.0 | 3.0 | 0.00 | 0.02 | 0.00 | 37 | 1008.2 |
| 20260508013713 | 50 | 267 | 0.0 | 2.0 | 0.00 | 0.02 | 0.00 | 34 | 1008.1 |
| 20260508013209 | 50 | 278 | 0.0 | 4.0 | 0.00 | 0.02 | 0.00 | 35 | 1007.9 |
| 20260508013128 | 49 | 250 | 0.0 | 4.0 | 0.00 | 0.02 | 0.00 | 35 | 1008.0 |
| 20260508012729 | 50 | 284 | 1.0 | 4.0 | 0.00 | 0.02 | 0.00 | 35 | 1007.9 |
| 20260508012204 | 50 | 269 | 0.0 | 2.0 | 0.00 | 0.02 | 0.00 | 34 | 1007.8 |
| 20260508011725 | 50 | 284 | 0.0 | 2.0 | 0.00 | 0.02 | 0.00 | 35 | 1007.8 |
| 20260508011201 | 50 | 297 | 0.0 | 2.0 | 0.00 | 0.02 | 0.00 | 35 | 1007.8 |
| 20260508010700 | 50 | 271 | 1.0 | 2.0 | 0.00 | 0.02 | 0.00 | 34 | 1007.6 |
| 20260508010158 | 50 | 262 | 0.0 | 2.0 | 0.00 | 0.02 | 0.00 | 35 | 1007.7 |
| 20260508005715 | 50 | 238 | 0.0 | 2.0 | 0.00 | 0.02 | 0.00 | 35 | 1007.6 |
| 20260508005231 | 50 | 234 | 0.0 | 2.0 | 0.00 | 0.02 | 0.00 | 34 | 1007.6 |
| 20260508004708 | 50 | 127 | 0.0 | 1.0 | 0.00 | 0.02 | 0.00 | 35 | 1007.6 |
| 20260508004625 | 50 | 127 | 0.0 | 1.0 | 0.00 | 0.02 | 0.00 | 34 | 1007.5 |
| 20260508004207 | 50 | 127 | 0.0 | 1.0 | 0.00 | 0.02 | 0.00 | 34 | 1007.4 |
| 20260508003707 | 51 | 231 | 0.0 | 1.0 | 0.00 | 0.02 | 0.00 | 33 | 1007.3 |
| 20260508003205 | 51 | 266 | 0.0 | 1.0 | 0.00 | 0.02 | 0.00 | 32 | 1007.4 |
| 20260508002705 | 51 | 244 | 0.0 | 2.0 | 0.00 | 0.02 | 0.00 | 32 | 1007.3 |
| 20260508002203 | 52 | 271 | 0.0 | 2.0 | 0.00 | 0.02 | 0.00 | 32 | 1007.3 |
| 20260508001704 | 52 | 262 | 0.0 | 2.0 | 0.00 | 0.02 | 0.00 | 31 | 1007.2 |
| 20260508001222 | 52 | 272 | 1.0 | 2.0 | 0.00 | 0.02 | 0.00 | 32 | 1007.2 |
| 20260508000700 | 52 | 295 | 1.0 | 2.0 | 0.00 | 0.02 | 0.00 | 30 | 1007.1 |
| 20260508000235 | 53 | 281 | 1.0 | 2.0 | 0.00 | 0.02 | 0.00 | 30 | 1007.1 |
| 20260508000132 | 52 | 279 | 0.0 | 2.0 | 0.00 | 0.02 | 0.00 | 30 | 1007.0 |
| 20260507235713 | 53 | 253 | 0.0 | 4.0 | 0.00 | 0.02 | 0.00 | 31 | 1007.0 |
| 20260507235251 | 53 | 259 | 0.0 | 4.0 | 0.00 | 0.02 | 0.00 | 30 | 1007.1 |
| 20260507234705 | 54 | 283 | 0.0 | 4.0 | 0.00 | 0.02 | 0.00 | 29 | 1007.0 |
| 20260507234224 | 54 | 254 | 1.0 | 4.0 | 0.00 | 0.02 | 0.00 | 29 | 1006.9 |
| 20260507233703 | 54 | 255 | 1.0 | 3.0 | 0.00 | 0.02 | 0.00 | 30 | 1006.9 |
| 20260507233223 | 54 | 300 | 1.0 | 4.0 | 0.00 | 0.02 | 0.00 | 28 | 1006.9 |
| 20260507232700 | 55 | 272 | 1.0 | 4.0 | 0.00 | 0.02 | 0.00 | 28 | 1006.9 |
| 20260507232158 | 55 | 249 | 1.0 | 4.0 | 0.00 | 0.02 | 0.00 | 28 | 1006.9 |
| 20260507231657 | 55 | 315 | 0.0 | 4.0 | 0.00 | 0.02 | 0.00 | 27 | 1006.8 |
| 20260507231153 | 56 | 264 | 2.0 | 5.0 | 0.00 | 0.02 | 0.00 | 26 | 1006.8 |
| 20260507230653 | 56 | 335 | 2.0 | 6.0 | 0.00 | 0.02 | 0.00 | 25 | 1006.7 |
| 20260507230152 | 56 | 241 | 3.0 | 6.0 | 0.00 | 0.02 | 0.00 | 24 | 1006.8 |
| 20260507225653 | 57 | 93 | 3.0 | 9.0 | 0.00 | 0.03 | 0.00 | 23 | 1006.7 |
| 20260507225234 | 57 | 263 | 3.0 | 9.0 | 0.00 | 0.03 | 0.00 | 24 | 1006.6 |
| 20260507224732 | 58 | 278 | 0.0 | 8.0 | 0.00 | 0.03 | 0.00 | 24 | 1006.6 |
| 20260507224624 | 57 | 248 | 0.0 | 8.0 | 0.00 | 0.03 | 0.00 | 24 | 1006.6 |
| 20260507224207 | 58 | 299 | 2.0 | 7.0 | 0.00 | 0.03 | 0.00 | 23 | 1006.6 |
| 20260507223704 | 58 | 309 | 1.0 | 7.0 | 0.00 | 0.03 | 0.00 | 24 | 1006.6 |
| 20260507223201 | 58 | 252 | 3.0 | 8.0 | 0.00 | 0.03 | 0.00 | 24 | 1006.5 |
| 20260507222702 | 58 | 206 | 3.0 | 8.0 | 0.00 | 0.03 | 0.00 | 23 | 1006.4 |
| 20260507222159 | 59 | 283 | 4.0 | 8.0 | 0.00 | 0.03 | 0.00 | 21 | 1006.3 |
| 20260507221659 | 59 | 282 | 2.0 | 5.0 | 0.00 | 0.03 | 0.00 | 22 | 1006.3 |
| 20260507221228 | 59 | 261 | 2.0 | 10.0 | 0.00 | 0.03 | 0.00 | 21 | 1006.3 |
| 20260507220707 | 60 | 106 | 4.0 | 10.0 | 0.00 | 0.03 | 0.00 | 20 | 1006.4 |
| 20260507220203 | 60 | 291 | 2.0 | 5.0 | 0.00 | 0.03 | 0.00 | 22 | 1006.2 |
| 20260507215702 | 60 | 259 | 2.0 | 11.0 | 0.00 | 0.04 | 0.00 | 22 | 1006.2 |
| 20260507215201 | 60 | 31 | 5.0 | 12.0 | 0.00 | 0.04 | 0.00 | 20 | 1006.2 |
| 20260507214716 | 60 | 300 | 3.0 | 12.0 | 0.00 | 0.04 | 0.00 | 20 | 1006.1 |
| 20260507214632 | 60 | 281 | 3.0 | 12.0 | 0.00 | 0.04 | 0.00 | 20 | 1006.1 |
| 20260507214213 | 61 | 270 | 2.0 | 11.0 | 0.00 | 0.04 | 0.00 | 21 | 1006.2 |
| 20260507213711 | 60 | 285 | 3.0 | 11.0 | 0.00 | 0.04 | 0.00 | 21 | 1006.1 |
| 20260507213207 | 61 | 323 | 2.0 | 9.0 | 0.00 | 0.04 | 0.00 | 20 | 1006.1 |
| 20260507213122 | 61 | 323 | 2.0 | 9.0 | 0.00 | 0.04 | 0.00 | 20 | 1006.0 |
| 20260507212707 | 61 | 259 | 3.0 | 8.0 | 0.00 | 0.04 | 0.00 | 20 | 1006.1 |
| 20260507212206 | 61 | 245 | 4.0 | 10.0 | 0.00 | 0.04 | 0.00 | 19 | 1006.0 |
| 20260507211705 | 61 | 276 | 3.0 | 10.0 | 0.00 | 0.04 | 0.00 | 19 | 1006.0 |